Location: Palomar Mountain Lodge
(33.3110°N, 116.8495°W)
Time: 11:10:14
(UTC-07:00)

MOZHAYETS 4 - Visible Passes

Search period start: 11 April 2026 00:00
Search period end: 21 April 2026 00:00
Orbit: 642 x 659 km, 98.3° (Epoch: 11 April)

Date Brightness Start Highest point End Pass type
(mag) Time Alt. Az. Time Alt. Az. Time Alt. Az.
11 Apr 9.5 05:23:30 10° SE 05:27:33 34° ENE 05:31:35 10° N visible
12 Apr 8.0 05:49:36 10° SSE 05:54:04 72° ENE 05:58:30 10° N visible
13 Apr 11.2 04:43:02 10° E 04:44:30 11° ENE 04:45:58 10° NE visible
13 Apr 11.0 19:49:58 10° NNW 19:52:38 16° WNW 19:55:17 10° WSW visible
14 Apr 10.4 05:07:24 10° ESE 05:10:51 22° ENE 05:14:18 10° NNE visible
15 Apr 9.0 05:33:04 10° SE 05:37:17 44° ENE 05:41:31 10° N visible
17 Apr 11.0 04:51:46 10° E 04:54:11 15° ENE 04:56:36 10° NE visible
17 Apr 11.3 20:00:26 10° NW 20:02:19 13° WNW 20:04:12 10° W visible
18 Apr 10.0 05:16:46 10° SE 05:20:33 28° ENE 05:24:20 10° NNE visible
19 Apr 8.5 05:42:40 10° SSE 05:47:01 56° ENE 05:51:23 10° N visible
20 Apr 10.9 19:42:28 10° NNW 19:45:38 19° WNW 19:48:49 10° WSW visible
